When you browse on this site, cookies collect data to enhance your experience and personalize the content and advertising you see.
Visit our Privacy Policy to learn more. By continuing to use the site, you agree to this use of cookies and data.
  • Em Portugal
  • Lista de países
  • Para 7 dias
  • Temperatura da água
  • Mapa do tempo
  • Widgets de tempo
  • user-avatar
    Iniciar Sessão

    Previsão horária em Igls

    Hoje, 21 Agosto, Quarta-feira

    Tempo Temperatura Precipitação Vento Pressão Humidade
    00:00 +14°C° 1.3 mm 2 m/s 690 mmHg 98%
    01:00 +13°C° 0 mm 2 m/s 691 mmHg 98%
    02:00 +13°C° 1.3 mm 2 m/s 690 mmHg 98%
    03:00 +13°C° 1.3 mm 1 m/s 690 mmHg 98%
    04:00 +12°C° 1.3 mm 1 m/s 690 mmHg 98%
    05:00 +13°C° 0.9 mm 1 m/s 690 mmHg 98%
    06:00 +13°C° 0.9 mm 1 m/s 691 mmHg 97%
    07:00 +13°C° 0.9 mm 1 m/s 691 mmHg 97%
    08:00 +14°C° 0.2 mm 1 m/s 691 mmHg 93%
    09:00 +15°C° 0.2 mm 1 m/s 691 mmHg 90%
    10:00 +16°C° 0.2 mm 1 m/s 691 mmHg 86%
    11:00 +18°C° 0.1 mm 1 m/s 691 mmHg 83%
    12:00 +19°C° 0.1 mm 1 m/s 691 mmHg 79%
    13:00 +20°C° 0.1 mm 1 m/s 691 mmHg 76%
    14:00 +19°C° 0.3 mm 2 m/s 691 mmHg 77%
    15:00 +19°C° 0.3 mm 2 m/s 691 mmHg 78%
    16:00 +19°C° 0.3 mm 2 m/s 690 mmHg 80%
    17:00 +19°C° 0.2 mm 1 m/s 690 mmHg 84%
    18:00 +18°C° 0.2 mm 1 m/s 690 mmHg 88%
    19:00 +16°C° 0.2 mm 1 m/s 690 mmHg 93%
    20:00 +16°C° 0.1 mm 1 m/s 690 mmHg 94%
    21:00 +15°C° 0.1 mm 1 m/s 690 mmHg 95%
    22:00 +13°C° 0.1 mm 0 m/s 690 mmHg 96%
    23:00 +13°C° 0.1 mm 0 m/s 690 mmHg 95%

    Amanhã, 22 Agosto, Quinta-feira

    Tempo Temperatura Precipitação Vento Pressão Humidade
    00:00 +14°C° 0.1 mm 1 m/s 690 mmHg 94%
    01:00 +14°C° 0.1 mm 1 m/s 690 mmHg 93%
    02:00 +14°C° 0.1 mm 1 m/s 690 mmHg 93%
    03:00 +13°C° 0.1 mm 0 m/s 689 mmHg 92%
    04:00 +14°C° 0.1 mm 0 m/s 689 mmHg 92%
    05:00 +14°C° 0 mm 0 m/s 689 mmHg 89%
    06:00 +15°C° 0 mm 0 m/s 690 mmHg 87%
    07:00 +16°C° 0 mm 0 m/s 690 mmHg 85%
    08:00 +18°C° 0 mm 0 m/s 691 mmHg 78%
    09:00 +20°C° 0 mm 0 m/s 691 mmHg 71%
    10:00 +24°C° 0 mm 1 m/s 691 mmHg 63%
    11:00 +25°C° 0.4 mm 1 m/s 691 mmHg 61%
    12:00 +26°C° 0.4 mm 1 m/s 691 mmHg 59%
    13:00 +26°C° 0.4 mm 1 m/s 691 mmHg 57%
    14:00 +26°C° 0.8 mm 1 m/s 691 mmHg 62%
    15:00 +25°C° 0.8 mm 1 m/s 691 mmHg 66%
    16:00 +24°C° 0.8 mm 1 m/s 690 mmHg 71%
    17:00 +23°C° 0.7 mm 1 m/s 690 mmHg 78%
    18:00 +21°C° 0.7 mm 1 m/s 690 mmHg 86%
    19:00 +19°C° 0.7 mm 1 m/s 690 mmHg 93%
    20:00 +17°C° 0.2 mm 0 m/s 690 mmHg 93%
    21:00 +16°C° 0.2 mm 0 m/s 690 mmHg 93%
    22:00 +16°C° 0.2 mm 0 m/s 690 mmHg 93%
    23:00 +15°C° 0 mm 0 m/s 690 mmHg 93%

    Depois de amanhã, 23 Agosto, Sexta-feira

    Tempo Temperatura Precipitação Vento Pressão Humidade
    00:00 +15°C° 0 mm 0 m/s 690 mmHg 92%
    01:00 +15°C° 0 mm 0 m/s 690 mmHg 92%
    02:00 +15°C° 0 mm 0 m/s 690 mmHg 92%
    03:00 +15°C° 0 mm 0 m/s 690 mmHg 91%
    04:00 +15°C° 0 mm 1 m/s 689 mmHg 91%
    05:00 +16°C° 0 mm 1 m/s 690 mmHg 89%
    06:00 +18°C° 0 mm 1 m/s 690 mmHg 87%
    07:00 +19°C° 0 mm 1 m/s 690 mmHg 85%
    08:00 +21°C° 0.1 mm 1 m/s 691 mmHg 78%
    09:00 +23°C° 0.1 mm 1 m/s 691 mmHg 71%
    10:00 +25°C° 0.1 mm 1 m/s 691 mmHg 64%
    11:00 +26°C° 0.7 mm 1 m/s 691 mmHg 63%
    12:00 +26°C° 0.7 mm 1 m/s 691 mmHg 62%
    13:00 +27°C° 0.7 mm 1 m/s 691 mmHg 60%
    14:00 +26°C° 1.1 mm 1 m/s 690 mmHg 64%
    15:00 +26°C° 1.1 mm 1 m/s 690 mmHg 68%
    16:00 +25°C° 1.1 mm 1 m/s 690 mmHg 72%
    17:00 +23°C° 0.7 mm 1 m/s 689 mmHg 78%
    18:00 +22°C° 0.7 mm 1 m/s 689 mmHg 85%
    19:00 +20°C° 0.7 mm 1 m/s 689 mmHg 91%
    20:00 +20°C° 0.4 mm 1 m/s 689 mmHg 90%
    21:00 +19°C° 0.4 mm 1 m/s 689 mmHg 90%
    22:00 +18°C° 0.4 mm 1 m/s 689 mmHg 90%
    23:00 +18°C° 0 mm 1 m/s 689 mmHg 90%

    24 Agosto, Sábado

    Tempo Temperatura Precipitação Vento Pressão Humidade
    00:00 +18°C° 0 mm 1 m/s 689 mmHg 89%
    01:00 +16°C° 0 mm 1 m/s 688 mmHg 88%
    02:00 +16°C° 0 mm 1 m/s 688 mmHg 88%
    03:00 +16°C° 0 mm 1 m/s 688 mmHg 88%
    04:00 +16°C° 0 mm 1 m/s 688 mmHg 87%
    05:00 +18°C° 0 mm 1 m/s 688 mmHg 85%
    06:00 +19°C° 0 mm 1 m/s 688 mmHg 83%
    07:00 +20°C° 0 mm 1 m/s 688 mmHg 82%
    08:00 +22°C° 0 mm 1 m/s 689 mmHg 73%
    09:00 +24°C° 0 mm 1 m/s 689 mmHg 64%
    10:00 +27°C° 0 mm 1 m/s 690 mmHg 55%
    11:00 +27°C° 0.3 mm 1 m/s 689 mmHg 54%
    12:00 +27°C° 0.3 mm 1 m/s 689 mmHg 53%
    13:00 +28°C° 0.3 mm 1 m/s 689 mmHg 52%
    14:00 +27°C° 1 mm 1 m/s 689 mmHg 58%
    15:00 +26°C° 1 mm 1 m/s 688 mmHg 65%
    16:00 +25°C° 1 mm 1 m/s 688 mmHg 71%
    17:00 +23°C° 1.1 mm 1 m/s 688 mmHg 77%
    18:00 +22°C° 1.1 mm 1 m/s 687 mmHg 83%
    19:00 +18°C° 1.1 mm 0 m/s 687 mmHg 89%
    20:00 +20°C° 0.2 mm 1 m/s 687 mmHg 89%
    21:00 +19°C° 0.2 mm 1 m/s 687 mmHg 88%
    22:00 +19°C° 0.2 mm 1 m/s 688 mmHg 88%
    23:00 +18°C° 0 mm 1 m/s 687 mmHg 88%

    25 Agosto, Domingo

    Tempo Temperatura Precipitação Vento Pressão Humidade
    00:00 +18°C° 0 mm 1 m/s 687 mmHg 88%
    01:00 +16°C° 0 mm 1 m/s 687 mmHg 88%
    02:00 +16°C° 0 mm 1 m/s 687 mmHg 87%
    03:00 +16°C° 0 mm 1 m/s 687 mmHg 87%
    04:00 +15°C° 0 mm 1 m/s 686 mmHg 87%
    05:00 +18°C° 0 mm 1 m/s 687 mmHg 85%
    06:00 +19°C° 0 mm 1 m/s 687 mmHg 83%
    07:00 +18°C° 0 mm 0 m/s 687 mmHg 81%
    08:00 +22°C° 0 mm 1 m/s 688 mmHg 72%
    09:00 +25°C° 0 mm 1 m/s 688 mmHg 63%
    10:00 +27°C° 0 mm 1 m/s 689 mmHg 54%
    11:00 +27°C° 0.6 mm 1 m/s 688 mmHg 54%
    12:00 +28°C° 0.6 mm 1 m/s 688 mmHg 53%
    13:00 +28°C° 0.6 mm 1 m/s 688 mmHg 52%
    14:00 +27°C° 1.3 mm 1 m/s 688 mmHg 58%
    15:00 +26°C° 1.3 mm 1 m/s 687 mmHg 65%
    16:00 +25°C° 1.3 mm 1 m/s 687 mmHg 71%
    17:00 +24°C° 1.1 mm 1 m/s 687 mmHg 77%
    18:00 +22°C° 1.1 mm 1 m/s 687 mmHg 83%
    19:00 +19°C° 1.1 mm 0 m/s 686 mmHg 88%
    20:00 +20°C° 0.3 mm 1 m/s 687 mmHg 88%
    21:00 +20°C° 0.3 mm 1 m/s 687 mmHg 88%
    22:00 +19°C° 0.3 mm 1 m/s 687 mmHg 88%
    23:00 +19°C° 0 mm 1 m/s 687 mmHg 88%

    26 Agosto, Segunda-feira

    Tempo Temperatura Precipitação Vento Pressão Humidade
    00:00 +18°C° 0 mm 1 m/s 687 mmHg 89%
    01:00 +16°C° 0 mm 1 m/s 687 mmHg 89%
    02:00 +16°C° 0 mm 1 m/s 687 mmHg 89%
    03:00 +16°C° 0 mm 1 m/s 686 mmHg 89%
    04:00 +16°C° 0 mm 1 m/s 686 mmHg 89%
    05:00 +18°C° 0 mm 1 m/s 687 mmHg 87%
    06:00 +19°C° 0 mm 1 m/s 687 mmHg 85%
    07:00 +20°C° 0 mm 1 m/s 687 mmHg 83%
    08:00 +22°C° 0.2 mm 1 m/s 688 mmHg 77%
    09:00 +24°C° 0.2 mm 1 m/s 688 mmHg 70%
    10:00 +26°C° 0.2 mm 1 m/s 689 mmHg 64%
    11:00 +26°C° 1.1 mm 1 m/s 689 mmHg 63%
    12:00 +26°C° 1.1 mm 2 m/s 689 mmHg 63%
    13:00 +26°C° 1.1 mm 2 m/s 688 mmHg 62%
    14:00 +26°C° 0.6 mm 2 m/s 688 mmHg 61%
    15:00 +26°C° 0.6 mm 2 m/s 688 mmHg 59%
    16:00 +26°C° 0.6 mm 2 m/s 688 mmHg 57%
    17:00 +24°C° 0.1 mm 1 m/s 688 mmHg 65%
    18:00 +22°C° 0.1 mm 1 m/s 688 mmHg 74%
    19:00 +20°C° 0.1 mm 1 m/s 688 mmHg 82%
    20:00 +19°C° 0 mm 1 m/s 688 mmHg 83%
    21:00 +18°C° 0 mm 1 m/s 688 mmHg 83%
    22:00 +16°C° 0 mm 1 m/s 689 mmHg 84%
    23:00 +16°C° 0 mm 1 m/s 689 mmHg 83%
    Mostrar mais